[[{"header":{"parameterUnit":"m.s-1","parameterCategory":1,"la1":30.2991,"la2":30.254,"lo1":-89.0895,"lo2":-89.0444,"dy":0.0017,"dx":0.0017,"nx":28,"ny":28,"refTime":"2024-04-28T03:00:00:Z","depth":0,"parameterNumber":2,"parameterNumberName":"U-component_of_WINDS"},"data":[0,0,0,0,0,0,0,0,0,0,0,0,0,0,0,0,0,0,0,0,0,0,0,0,0,0,0,0,0,0,0,0,0,0,0,0,0,0,0,0,0,0,0,0,0,0,0,0,0,0,0,0,0,0,0,0,0,0,-8.5061,-8.5064,0,-8.5277,-8.5279,-8.5282,-8.5264,-8.5261,-8.5258,-8.5255,-8.5472,-8.548,-8.5489,0,0,0,0,0,0,0,0,0,0,0,0,0,-8.4632,-8.464,-8.5061,-8.5064,-8.5066,-8.5276,-8.5279,-8.5282,-8.5265,-8.5261,-8.5257,-8.5253,-8.5469,-8.5479,-8.549,0,0,0,0,0,0,0,0,0,0,0,0,0,-8.483,-8.4642,-8.5061,-8.5083,-8.5087,-8.5276,-8.5279,-8.5283,-8.5265,-8.5261,-8.5256,-8.5251,-8.5465,-8.5478,-8.5491,-8.567,0,0,-8.5532,-8.5537,0,0,0,0,0,0,0,0,-8.4818,-8.4845,-8.5077,-8.5082,-8.5087,-8.5239,-8.5208,-8.5413,-8.5267,-8.5198,-8.5254,-8.5249,-8.5398,-8.5416,-8.5467,-8.5681,-8.569,-8.5533,-8.5541,-8.5547,-8.555,0,0,0,0,0,0,0,-8.4805,-8.4836,-8.5146,-8.508,-8.5087,-8.5082,-8.5104,-8.5246,-8.5322,-8.5203,-8.5203,-8.5229,-8.54,-8.5455,-8.5472,-8.5693,-8.5532,-8.5544,-8.5552,-8.5558,-8.6063,-8.6068,0,0,0,0,0,0,-8.4786,-8.4825,-8.5139,-8.5153,-8.4938,-8.5093,-8.5119,-8.5195,-8.5321,-8.5335,-8.5232,-8.5227,-8.5435,-8.5457,-8.548,-8.5696,-8.5546,-8.5559,-8.5566,-8.6058,-8.6064,-8.607,0,0,0,0,0,0,-8.4777,-8.4814,-8.5131,-8.4989,-8.5029,-8.5106,-8.5191,-8.5202,-8.5256,-8.5343,-8.5356,-8.5275,-8.5432,-8.5461,-8.5623,-8.5703,-8.5565,-8.5577,-8.6051,-8.606,-8.6067,-8.613,0,0,0,0,0,0,-8.4765,-8.4811,-8.488,-8.499,-8.5036,-8.5271,-8.5197,-8.5209,-8.528,-8.5275,-8.5386,-8.54,-8.543,-8.5604,-8.5636,-8.5719,-8.5587,-8.6044,-8.6055,-8.6065,-8.6121,-8.614,-8.6155,0,0,0,0,0,-8.475,-8.4889,-8.4884,-8.4922,-8.5125,-8.5276,-8.5302,-8.5334,-8.5286,-8.5356,-8.5412,-8.5396,-8.569,-8.562,-8.5657,-8.5745,-8.6039,-8.6052,-8.6064,-8.6114,-8.6136,-8.6155,0,0,0,0,0,0,-8.4785,-8.4904,-8.4899,-8.5079,-8.5168,-8.5272,-8.5361,-8.5357,-8.546,-8.5451,-8.5487,-8.5512,-8.5674,-8.5727,-8.5646,-8.5924,-8.5858,-8.5878,-8.5883,-8.5906,-8.5922,-8.5904,-8.5598,0,0,0,0,0,-8.4814,-8.4928,-8.5025,-8.5174,-8.5219,-8.5283,-8.535,-8.5368,-8.546,-8.5497,-8.5565,-8.5654,-8.5767,-8.584,-8.5948,-8.6131,-8.6153,-8.6209,-8.6226,-8.624,-8.6255,-8.6354,-8.6379,-8.6111,-8.6111,-8.611,0,0,-8.4874,-8.4953,-8.5023,-8.5184,-8.5254,-8.537,-8.5314,-8.5439,-8.5525,-8.5516,-8.5672,-8.5726,-8.5828,-8.6,-8.608,-8.6048,-8.6336,-8.6256,-8.6266,-8.6274,-8.6369,-8.6395,-8.6417,-8.6119,-8.6118,-8.6116,0,0,-8.5042,-8.5115,-8.5246,-8.5319,-8.5427,-8.5469,-8.5501,-8.5607,-8.5642,-8.58,-8.5796,-8.5899,-8.6092,-8.6165,-8.6227,-8.6426,-8.6414,-8.646,-8.6547,-8.6643,-8.6664,-8.6683,-8.675,-8.6775,-8.6477,-8.6477,-8.6477,0,-8.5102,-8.5277,-8.5313,-8.544,-8.551,-8.551,-8.5642,-8.5711,-8.5848,-8.5896,-8.5861,-8.6103,-8.6173,-8.6361,-8.641,-8.6462,-8.6497,-8.6445,-8.6658,-8.6678,-8.6696,-8.6761,-8.6786,-8.6481,-8.6481,-8.648,-8.648,0,-8.5345,-8.5467,-8.556,-8.5694,-8.5775,-8.5904,-8.5958,-8.6036,-8.6049,-8.6094,-8.6254,-8.6338,-8.6463,-8.651,-8.6523,-8.6701,-8.6678,-8.6651,-8.6584,-8.6725,-8.6786,-8.6812,-8.6488,-8.6486,-8.6485,-8.6484,0,0,-8.5537,-8.5691,-8.5724,-8.5784,-8.5906,-8.6,-8.6129,-8.6252,-8.6317,-8.6414,-8.652,-8.6686,-8.6661,-8.6732,-8.6754,-8.6838,-8.6987,-8.68,-8.6803,-8.6829,-8.7185,-8.7202,-8.723,-8.6983,-8.6988,-8.6992,-8.7175,0,-8.5714,-8.5942,-8.5979,-8.6179,-8.6291,-8.6294,-8.6406,-8.6492,-8.6539,-8.664,-8.6692,-8.6807,-8.6768,-8.681,-8.6895,-8.6951,-8.7058,-8.6939,-8.708,-8.7084,-8.7049,-8.7263,-8.7281,-8.745,-8.72,-8.7204,-8.7207,0,-8.595,-8.6053,-8.6264,-8.637,-8.6418,-8.6518,-8.6634,-8.6732,-8.6829,-8.6857,-8.6938,-8.695,-8.7083,-8.7014,-8.7197,-8.7115,-8.7176,-8.7212,-8.722,-8.723,-8.7151,-8.7275,-8.7505,-8.7529,-8.7246,-8.7243,-8.724,0,-8.6064,-8.6256,-8.6407,-8.6459,-8.6587,-8.6657,-8.6714,-8.6807,-8.6879,-8.6981,-8.7027,-8.7143,-8.7206,-8.7295,-8.7337,-8.7284,-8.7517,-8.7452,-8.7541,-8.754,-8.7586,-8.7581,-8.7824,-8.7633,-8.7632,-8.7632,-8.7631,0,-8.6255,-8.6383,-8.646,-8.6552,-8.6695,-8.6738,-8.6879,-8.6933,-8.7017,-8.7119,-8.713,-8.7226,-8.7278,-8.7382,-8.7417,-8.7561,-8.759,-8.7615,-8.7622,-8.7611,-8.7608,-8.7648,-8.7636,-8.7638,-8.7637,-8.7636,-8.7634,0,-8.6404,-8.6461,-8.6625,-8.6734,-8.6765,-8.6865,-8.6958,-8.7047,-8.7095,-8.7224,-8.7257,-8.7332,-8.7454,-8.7507,-8.7657,-8.7681,-8.7845,-8.7845,-8.7811,-8.7813,-8.7897,-8.7887,-8.8171,-8.8209,-8.7996,-8.7998,-8.8,0,-8.652,-8.6619,-8.6739,-8.6808,-8.6867,-8.698,-8.7053,-8.71,-8.7176,-8.7296,-8.737,-8.7493,-8.7593,-8.7789,-8.7856,-8.7971,-8.7971,-8.8063,-8.7988,-8.7975,-8.7968,-8.796,-8.7969,-8.8075,-8.8077,-8.8079,-8.808,0,-8.6719,-8.6742,-8.6849,-8.6965,-8.7053,-8.7147,-8.7239,-8.7296,-8.7356,-8.7441,-8.7567,-8.7645,-8.78,-8.792,-8.804,-8.8098,-8.8099,-8.8104,-8.813,-8.8118,-8.8093,-8.8104,-8.7844,-8.8096,-8.8095,-8.8093,-8.8093,-8.8092,-8.6852,-8.694,-8.7038,-8.7156,-8.723,-8.7316,-8.7405,-8.7465,-8.7571,-8.77,-8.7722,-8.7855,-8.7951,-8.8112,-8.8175,-8.8279,-8.8256,-8.8295,-8.8304,-8.8311,-8.8315,-8.8081,-8.8302,-8.8301,-8.8301,-8.8301,-8.83,0,-8.7048,-8.7112,-8.7221,-8.7349,-8.7442,-8.7438,-8.754,-8.7617,-8.7734,-8.7824,-8.7923,-8.8068,-8.8186,-8.8263,-8.8383,-8.8451,-8.8455,-8.8481,-8.8473,-8.8486,-8.833,-8.8294,-8.8476,-8.8476,-8.8476,-8.8475,-8.8475,-8.8475,-8.716,-8.7307,-8.7343,-8.7527,-8.759,-8.7721,-8.7779,-8.7858,-8.793,-8.8091,-8.8189,-8.824,-8.8325,-8.8451,-8.8559,-8.8578,-8.862,-8.8647,-8.8664,-8.8516,-8.8497,-8.848,-8.8446,-8.8656,-8.8657,-8.8811,-8.8813,-8.8814]},{"header":{"parameterUnit":"m.s-1","parameterCategory":1,"la1":30.2991,"la2":30.254,"lo1":-89.0895,"lo2":-89.0444,"dy":0.0017,"dx":0.0017,"nx":28,"ny":28,"refTime":"2024-04-28T03:00:00:Z","depth":0,"parameterNumber":3,"parameterNumberName":"V-component_of_WINDS"},"data":[0,0,0,0,0,0,0,0,0,0,0,0,0,0,0,0,0,0,0,0,0,0,0,0,0,0,0,0,0,0,0,0,0,0,0,0,0,0,0,0,0,0,0,0,0,0,0,0,0,0,0,0,0,0,0,0,0,0,5.1589,5.159,0,5.169,5.1691,5.1692,5.1696,5.1694,5.1693,5.1692,5.1791,5.1794,5.1798,0,0,0,0,0,0,0,0,0,0,0,0,0,5.1396,5.14,5.1589,5.1591,5.1592,5.169,5.1691,5.1693,5.1696,5.1694,5.1693,5.1692,5.1789,5.1794,5.1798,0,0,0,0,0,0,0,0,0,0,0,0,0,5.1487,5.1401,5.1589,5.1605,5.1608,5.169,5.1691,5.1693,5.1696,5.1694,5.1693,5.1691,5.1788,5.1793,5.1799,5.187,0,0,5.1816,5.1819,0,0,0,0,0,0,0,0,5.1481,5.1494,5.1602,5.1604,5.1607,5.1679,5.1659,5.1752,5.1697,5.1662,5.1692,5.169,5.1754,5.1763,5.1785,5.1875,5.1879,5.1817,5.182,5.1822,5.1824,0,0,0,0,0,0,0,5.1475,5.1489,5.1629,5.1603,5.1607,5.1606,5.1617,5.1677,5.1717,5.1665,5.1666,5.1678,5.1756,5.178,5.1788,5.188,5.1816,5.1821,5.1825,5.1827,5.2033,5.2035,0,0,0,0,0,0,5.1466,5.1484,5.1626,5.1632,5.1539,5.1611,5.1624,5.1657,5.1717,5.1724,5.1679,5.1678,5.1771,5.1781,5.1791,5.1878,5.1822,5.1828,5.1831,5.2031,5.2034,5.2036,0,0,0,0,0,0,5.1462,5.1479,5.1622,5.1558,5.1577,5.1617,5.1655,5.166,5.1685,5.1727,5.1734,5.1697,5.177,5.1783,5.1851,5.1882,5.183,5.1835,5.2029,5.2032,5.2035,5.2053,0,0,0,0,0,0,5.1457,5.1477,5.1505,5.1559,5.158,5.1681,5.1657,5.1664,5.1695,5.1694,5.1746,5.1753,5.177,5.1843,5.1856,5.1889,5.184,5.2026,5.203,5.2034,5.205,5.2056,5.2062,0,0,0,0,0,5.145,5.1505,5.1507,5.1524,5.1616,5.1682,5.1694,5.1714,5.1698,5.1726,5.1753,5.1751,5.1877,5.1849,5.1865,5.1899,5.2024,5.2029,5.2034,5.2047,5.2055,5.2062,0,0,0,0,0,0,5.1452,5.1512,5.1515,5.159,5.1631,5.1683,5.1718,5.1722,5.1768,5.1764,5.1786,5.1798,5.1865,5.1889,5.1858,5.1972,5.1948,5.1957,5.1953,5.1961,5.1967,5.1959,5.1844,0,0,0,0,0,5.1462,5.1512,5.1561,5.1623,5.1644,5.1678,5.1707,5.172,5.1763,5.178,5.1812,5.1853,5.1902,5.1933,5.198,5.2054,5.2065,5.2086,5.2092,5.2097,5.2103,5.2144,5.2153,5.2052,5.2052,5.2052,0,0,5.1481,5.152,5.155,5.1624,5.1658,5.1708,5.1692,5.1746,5.1783,5.1787,5.1853,5.1879,5.1926,5.1997,5.203,5.2019,5.2134,5.2103,5.2106,5.211,5.215,5.2159,5.2168,5.2055,5.2054,5.2054,0,0,5.1542,5.1577,5.1632,5.1667,5.1719,5.1742,5.1755,5.1807,5.1825,5.1892,5.1896,5.1941,5.2024,5.2058,5.2086,5.2162,5.2162,5.2177,5.2208,5.2248,5.2256,5.2263,5.229,5.2299,5.2183,5.2183,5.2183,0,5.1559,5.1636,5.166,5.1714,5.1746,5.1755,5.1811,5.1843,5.1906,5.1928,5.1916,5.2022,5.2054,5.2133,5.2152,5.2175,5.219,5.217,5.2253,5.2261,5.2268,5.2293,5.2303,5.2185,5.2185,5.2185,5.2184,0,5.1654,5.1708,5.1746,5.181,5.1847,5.1901,5.1932,5.1966,5.1976,5.2,5.2068,5.2108,5.2164,5.2184,5.2193,5.2265,5.2257,5.2249,5.2225,5.2278,5.2303,5.2313,5.2187,5.2186,5.2186,5.2186,0,0,5.1717,5.1795,5.1809,5.1838,5.1897,5.1938,5.1994,5.205,5.2079,5.2123,5.2169,5.2241,5.2235,5.2267,5.228,5.2315,5.2373,5.2303,5.2304,5.2314,5.2454,5.2458,5.2469,5.2374,5.2376,5.2378,5.245,0,5.1784,5.1883,5.1907,5.1992,5.2041,5.2052,5.21,5.2141,5.2165,5.221,5.2236,5.2287,5.2275,5.2294,5.233,5.2358,5.2401,5.2354,5.2415,5.2417,5.2402,5.2482,5.2487,5.2553,5.2459,5.2461,5.2462,0,5.1874,5.1923,5.2013,5.2067,5.2089,5.2131,5.2185,5.2229,5.2276,5.2291,5.2328,5.2338,5.2395,5.2371,5.245,5.2417,5.2444,5.2462,5.2465,5.247,5.2441,5.2488,5.2574,5.2583,5.2477,5.2476,5.2475,0,5.191,5.1998,5.2063,5.2088,5.2153,5.2183,5.2211,5.2256,5.2289,5.2336,5.2357,5.241,5.2438,5.2479,5.2503,5.2483,5.2579,5.2557,5.2592,5.2592,5.261,5.2608,5.2701,5.2631,5.263,5.263,5.263,0,5.1981,5.2035,5.208,5.212,5.2182,5.2209,5.2269,5.2297,5.2337,5.2382,5.2394,5.2436,5.2466,5.2512,5.2532,5.2594,5.2606,5.262,5.2624,5.2618,5.2616,5.2634,5.2629,5.2633,5.2632,5.2632,5.2631,0,5.203,5.2063,5.2135,5.2191,5.2206,5.2249,5.2296,5.2335,5.2361,5.2418,5.2433,5.2473,5.2528,5.2557,5.2625,5.2638,5.2707,5.2709,5.2691,5.2693,5.2726,5.2722,5.2832,5.2847,5.2768,5.2769,5.277,0,5.2072,5.2115,5.2176,5.2208,5.2237,5.2288,5.2323,5.2351,5.2386,5.2444,5.2476,5.2532,5.2578,5.2665,5.2699,5.2751,5.2754,5.2789,5.2762,5.2754,5.2753,5.275,5.2754,5.2793,5.2794,5.2794,5.2795,0,5.2144,5.2158,5.2208,5.2264,5.2305,5.2349,5.2393,5.2419,5.2454,5.2493,5.255,5.2586,5.2657,5.2712,5.2768,5.2795,5.2801,5.2804,5.2814,5.2808,5.2795,5.2801,5.2703,5.28,5.28,5.2799,5.2799,5.2799,5.219,5.2228,5.2278,5.2333,5.237,5.2412,5.2451,5.2483,5.2532,5.2592,5.2606,5.2667,5.2713,5.2789,5.2818,5.2865,5.2858,5.2873,5.2877,5.288,5.2881,5.279,5.2875,5.2875,5.2875,5.2875,5.2875,0,5.2261,5.2294,5.2345,5.2407,5.2451,5.2455,5.2504,5.254,5.2593,5.2637,5.2683,5.2749,5.2803,5.2843,5.2898,5.2928,5.2932,5.2941,5.2938,5.2944,5.2885,5.287,5.2937,5.2937,5.2937,5.2937,5.2937,5.2937,5.2303,5.2369,5.2389,5.2473,5.2506,5.2566,5.2594,5.2632,5.2667,5.2741,5.2787,5.2813,5.2855,5.2914,5.2963,5.2974,5.2992,5.3002,5.3012,5.2955,5.2948,5.2942,5.2928,5.3006,5.3006,5.3067,5.3067,5.3068]}]]